Total_Precipitation_Accumulation
0.15 0.20 0.20 0.20 0.18 0.23 0.41 0.61 0.65 0.68 0.74 0.82 0.71 0.63 0.59 0.59 0.54 0.50 0.48 0.45 0.48 0.56 0.72 0.65 0.73 0.83 0.77 0.72 0.75 0.80 0.82 0.69 0.94 1.00 0.57 0.29 0.21 0.16 0.13 0.13 0.11 0.08 0.06
0.27 0.30 0.38 0.39 0.34 0.48 0.67 0.69 0.60 0.56 0.61 0.75 0.74 0.74 0.84 0.93 0.94 0.89 0.73 0.61 0.62 0.65 0.66 0.67 0.68 0.69 0.68 0.60 0.57 0.66 0.66 0.54 0.77 0.86 0.71 0.38 0.20 0.10 0.05 0.07 0.07 0.07 0.08
0.31 0.45 0.54 0.56 0.57 0.70 0.77 0.65 0.48 0.39 0.41 0.47 0.50 0.66 0.85 1.03 1.13 1.16 1.03 0.92 0.89 0.87 0.85 0.80 0.73 0.67 0.67 0.62 0.57 0.60 0.61 0.52 0.53 0.69 0.84 0.59 0.31 0.21 0.11 0.13 0.17 0.22 0.24
0.26 0.43 0.57 0.57 0.63 0.60 0.47 0.35 0.31 0.28 0.26 0.27 0.32 0.38 0.57 0.85 1.09 1.27 1.29 1.25 1.17 1.06 0.96 0.85 0.71 0.60 0.57 0.57 0.53 0.53 0.58 0.59 0.50 0.51 0.62 0.65 0.61 0.54 0.26 0.12 0.17 0.33 0.35
0.36 0.41 0.38 0.37 0.42 0.38 0.27 0.20 0.18 0.19 0.20 0.19 0.25 0.26 0.26 0.32 0.37 0.47 0.60 0.72 0.78 0.77 0.70 0.64 0.59 0.52 0.46 0.45 0.49 0.56 0.59 0.59 0.54 0.51 0.52 0.58 0.67 0.67 0.56 0.30 0.28 0.35 0.33
0.26 0.29 0.28 0.27 0.25 0.22 0.17 0.15 0.17 0.24 0.24 0.22 0.23 0.24 0.26 0.32 0.33 0.34 0.35 0.36 0.38 0.39 0.37 0.37 0.39 0.39 0.39 0.39 0.41 0.47 0.52 0.55 0.57 0.59 0.62 0.66 0.69 0.71 0.78 0.65 0.56 0.52 0.43
0.13 0.15 0.17 0.18 0.14 0.12 0.09 0.09 0.11 0.14 0.15 0.18 0.22 0.26 0.33 0.35 0.32 0.29 0.26 0.25 0.23 0.24 0.26 0.28 0.31 0.33 0.35 0.39 0.47 0.49 0.50 0.55 0.60 0.63 0.70 0.77 0.80 0.85 0.91 0.87 0.76 0.72 0.69
0.05 0.06 0.06 0.07 0.07 0.07 0.07 0.06 0.06 0.08 0.11 0.16 0.24 0.37 0.54 0.60 0.56 0.52 0.39 0.35 0.34 0.32 0.34 0.38 0.41 0.40 0.39 0.37 0.45 0.48 0.51 0.58 0.63 0.63 0.72 0.79 0.79 0.85 0.94 0.96 0.93 0.83 0.86
0.02 0.02 0.03 0.03 0.03 0.03 0.03 0.04 0.04 0.06 0.14 0.21 0.28 0.33 0.38 0.44 0.44 0.44 0.43 0.41 0.46 0.41 0.44 0.50 0.56 0.57 0.55 0.55 0.55 0.55 0.61 0.71 0.77 0.77 0.79 0.82 0.81 0.83 0.90 0.97 0.97 0.91 0.86
0.01 0.01 0.01 0.01 0.02 0.02 0.04 0.07 0.06 0.13 0.27 0.40 0.45 0.35 0.27 0.25 0.31 0.40 0.45 0.47 0.49 0.49 0.52 0.56 0.57 0.61 0.60 0.60 0.63 0.69 0.77 0.88 0.88 0.88 0.91 0.91 0.88 0.87 0.88 0.87 0.93 0.96 0.94
0.01 0.01 0.01 0.01 0.02 0.03 0.07 0.18 0.23 0.31 0.43 0.57 0.66 0.55 0.38 0.30 0.31 0.33 0.32 0.34 0.41 0.50 0.56 0.53 0.47 0.43 0.45 0.54 0.65 0.72 0.80 0.88 0.88 0.90 0.84 0.76 0.73 0.76 0.70 0.73 0.80 0.86 0.90
0.00 0.01 0.01 0.01 0.01 0.03 0.14 0.37 0.62 0.88 0.95 1.02 1.10 0.96 0.58 0.36 0.28 0.23 0.21 0.28 0.38 0.48 0.53 0.50 0.44 0.42 0.48 0.58 0.69 0.81 0.99 1.10 1.05 0.93 0.80 0.69 0.67 0.67 0.66 0.69 0.68 0.68 0.75
0.00 0.00 0.01 0.01 0.01 0.03 0.09 0.23 0.32 0.56 0.77 0.93 1.04 0.83 0.45 0.25 0.18 0.15 0.20 0.33 0.43 0.47 0.47 0.48 0.52 0.62 0.71 0.79 0.89 0.92 1.04 1.07 0.96 0.87 0.76 0.66 0.62 0.61 0.64 0.67 0.66 0.55 0.56
0.01 0.01 0.01 0.01 0.01 0.02 0.04 0.14 0.19 0.20 0.29 0.53 0.67 0.54 0.30 0.19 0.14 0.14 0.19 0.24 0.26 0.29 0.38 0.51 0.69 0.80 0.86 0.88 0.93 0.90 0.85 0.84 0.76 0.68 0.59 0.57 0.63 0.64 0.57 0.55 0.54 0.49 0.45
0.01 0.01 0.01 0.01 0.02 0.02 0.04 0.10 0.15 0.15 0.22 0.42 0.53 0.42 0.25 0.16 0.09 0.07 0.08 0.11 0.18 0.24 0.34 0.48 0.58 0.57 0.61 0.71 0.77 0.74 0.70 0.63 0.58 0.51 0.38 0.38 0.48 0.55 0.51 0.45 0.41 0.38 0.36
0.02 0.02 0.02 0.01 0.02 0.03 0.03 0.04 0.07 0.12 0.20 0.36 0.47 0.41 0.29 0.16 0.08 0.05 0.05 0.09 0.13 0.18 0.25 0.31 0.31 0.29 0.28 0.29 0.30 0.35 0.39 0.37 0.36 0.32 0.28 0.31 0.36 0.37 0.35 0.37 0.34 0.30 0.28
0.02 0.01 0.01 0.01 0.01 0.03 0.04 0.05 0.06 0.09 0.20 0.34 0.43 0.42 0.35 0.23 0.15 0.07 0.07 0.09 0.10 0.14 0.18 0.18 0.18 0.21 0.22 0.15 0.10 0.12 0.18 0.19 0.17 0.15 0.17 0.20 0.23 0.23 0.18 0.16 0.17 0.19 0.20
0.01 0.01 0.01 0.01 0.01 0.01 0.03 0.04 0.06 0.08 0.16 0.27 0.38 0.43 0.39 0.33 0.29 0.17 0.13 0.12 0.13 0.18 0.22 0.19 0.17 0.19 0.20 0.14 0.09 0.08 0.09 0.12 0.09 0.07 0.06 0.09 0.16 0.17 0.13 0.08 0.08 0.10 0.12
0.01 0.01 0.01 0.02 0.02 0.02 0.02 0.03 0.04 0.07 0.13 0.21 0.34 0.42 0.39 0.35 0.31 0.27 0.22 0.21 0.25 0.24 0.23 0.22 0.21 0.23 0.25 0.18 0.11 0.08 0.10 0.13 0.09 0.06 0.04 0.04 0.07 0.09 0.10 0.09 0.06 0.05 0.07
0.01 0.01 0.01 0.01 0.02 0.02 0.03 0.04 0.05 0.10 0.17 0.21 0.30 0.42 0.48 0.48 0.46 0.40 0.32 0.29 0.36 0.32 0.28 0.26 0.28 0.30 0.36 0.32 0.19 0.12 0.12 0.16 0.11 0.07 0.04 0.03 0.02 0.02 0.03 0.06 0.06 0.04 0.03
0.01 0.02 0.02 0.02 0.03 0.04 0.05 0.09 0.12 0.17 0.20 0.22 0.27 0.37 0.52 0.57 0.56 0.55 0.48 0.43 0.42 0.44 0.43 0.39 0.40 0.41 0.47 0.45 0.28 0.19 0.21 0.18 0.12 0.06 0.05 0.02 0.01 0.01 0.00 0.03 0.05 0.03 0.02
0.01 0.02 0.03 0.03 0.04 0.07 0.13 0.20 0.26 0.27 0.27 0.30 0.36 0.43 0.52 0.44 0.44 0.59 0.62 0.61 0.61 0.61 0.59 0.54 0.50 0.48 0.53 0.53 0.35 0.23 0.25 0.22 0.15 0.08 0.04 0.02 0.00 0.00 0.00 0.02 0.01 0.00 0.01
0.03 0.04 0.05 0.07 0.10 0.17 0.29 0.39 0.39 0.38 0.36 0.37 0.41 0.46 0.52 0.57 0.64 0.68 0.70 0.70 0.70 0.71 0.67 0.62 0.59 0.56 0.58 0.59 0.45 0.31 0.30 0.24 0.18 0.10 0.03 0.01 0.00 0.00 0.00 0.00 0.00 0.00 0.00
0.03 0.04 0.09 0.16 0.24 0.34 0.45 0.50 0.48 0.45 0.42 0.40 0.41 0.46 0.53 0.59 0.65 0.75 0.80 0.80 0.76 0.77 0.76 0.67 0.62 0.62 0.68 0.70 0.56 0.41 0.37 0.29 0.20 0.10 0.02 0.01 0.00 0.00 0.00 0.00 0.00 0.00 0.00
0.04 0.07 0.13 0.21 0.30 0.42 0.52 0.52 0.50 0.52 0.51 0.48 0.47 0.47 0.51 0.60 0.67 0.74 0.80 0.88 0.92 0.81 0.79 0.69 0.60 0.60 0.68 0.76 0.63 0.49 0.42 0.35 0.23 0.10 0.02 0.01 0.00 0.01 0.01 0.00 0.00 0.00 0.00
0.06 0.12 0.19 0.24 0.28 0.39 0.53 0.56 0.59 0.63 0.64 0.60 0.54 0.51 0.53 0.60 0.68 0.75 0.74 0.67 0.72 0.60 0.56 0.55 0.48 0.47 0.55 0.71 0.60 0.46 0.41 0.37 0.22 0.08 0.01 0.01 0.00 0.01 0.00 0.00 0.00 0.00 0.00